Home   Weather   Sfax   Past weeks

Flag for Tunisia Past Weather in Sfax, Tunisia — Yesterday and Last 2 Weeks

Now
90 °F

Passing clouds.


Feels Like: 95 °F
Forecast: 75 / 91 °F
Wind: 12 mph from East

Location: Sfax El-Maou

Current Time: Aug 20, 2017 at 6:30:05 pm

Latest Report: Aug 20, 2017 at 5:00 pm


Visibility: N/A

Pressure: 29.95 "Hg

Humidity: 52%

Dew Point: 70 °F

Location of SfaxLocation

Past Weather in Sfax — Graph

°F

Sfax Temperature Yesterday

Maximum temperature yesterday: 90 °F (at 12:00 pm)
Minimum temperature yesterday: 75 °F (at 5:00 am)
Average temperature yesterday: 84 °F

High & Low Weather Summary for the Past Weeks

 TemperatureHumidityPressure
High100 °F (Aug 5, 5:00 pm)84% (Aug 20, 1:00 am)30.09 "Hg (Aug 20, 1:00 am)
Low73 °F (Aug 13, 5:00 am)20% (Aug 18, 12:00 pm)29.83 "Hg (Aug 5, 6:00 pm)
Average85 °F56%29.97 "Hg
* Reported Aug 5 5:00 pm — Aug 20 5:00 pm, Sfax. Weather by CustomWeather, © 2017

Note: Actual official high and low records may vary slightly from our data, if they occured in-between our weather recording intervals... More about our weather records

Advertising

Sfax Weather History for the Previous 24 Hours

Scroll right to see more
 ConditionsComfort  
Time TempWeatherWind HumidityBarometerVisibility
5:00 pm
Sun, Aug 20
90 °FPassing clouds.12 mph52%29.95 "HgN/A
4:00 pm90 °FPassing clouds.12 mph52%29.95 "HgN/A
3:00 pm90 °FPassing clouds.13 mph59%29.95 "HgN/A
2:00 pm93 °FPassing clouds.12 mph30%29.95 "HgN/A
1:00 pm93 °FPassing clouds.12 mph44%29.98 "HgN/A
12:00 pm91 °FPassing clouds.9 mph52%29.98 "HgN/A
11:00 am93 °FSunny.2 mph49%29.98 "Hg10 mi
10:00 am91 °FSunny.2 mph44%30.01 "Hg10 mi
9:00 am88 °FSunny.No wind62%29.98 "Hg10 mi
8:00 am84 °FPassing clouds.5 mph70%29.98 "Hg5 mi
7:00 am79 °FPassing clouds.5 mph79%29.98 "Hg5 mi
6:00 am77 °FPassing clouds.5 mph83%29.98 "Hg5 mi
5:00 am77 °FClear.3 mph83%29.95 "Hg10 mi
4:00 am77 °FClear.3 mph83%29.95 "Hg10 mi
3:00 am79 °FClear.No wind79%29.95 "Hg10 mi
2:00 am79 °FClear.No wind84%29.95 "Hg10 mi
1:00 am79 °FClear.2 mph84%29.95 "Hg10 mi
12:00 am82 °FClear.5 mph74%29.98 "Hg10 mi
11:00 pm
Sat, Aug 19
82 °FClear.6 mph74%29.98 "Hg10 mi
10:00 pm82 °FClear.7 mph74%29.95 "Hg10 mi
9:00 pm82 °FClear.7 mph74%29.95 "Hg10 mi
8:00 pm84 °FClear.9 mph70%29.95 "Hg10 mi
7:00 pm84 °FSunny.10 mph66%29.92 "Hg10 mi
6:00 pm86 °FSunny.10 mph62%29.92 "Hg10 mi
Weather by CustomWeather, © 2017

See weather overviewHow to use our weather pages